timestamp,wind_dir_avg,wind_spd_avg,wind_spd_max_dir,wind_spd_gust,battery_voltage,lat,long
2023-09-13 00:04:00+00:00,68.0,7.64,70.0,8.94,12.41,47.59359,-54.27349
2023-09-13 00:14:00+00:00,68.0,6.54,60.0,8.21,12.41,47.59359,-54.27349
2023-09-13 00:24:00+00:00,73.0,6.18,67.0,7.24,12.41,47.59359,-54.27349
2023-09-13 00:34:00+00:00,74.0,5.23,71.0,7.44,12.41,47.59359,-54.27349
2023-09-13 00:44:00+00:00,69.0,6.23,69.0,7.53,12.41,47.59359,-54.27349
2023-09-13 00:54:00+00:00,76.0,4.66,96.0,6.42,12.41,47.59359,-54.27349
2023-09-13 01:04:00+00:00,77.0,4.43,68.0,6.8,12.41,47.59359,-54.27349
2023-09-13 01:14:01+00:00,70.0,6.06,69.0,8.09,12.41,47.59359,-54.27349
2023-09-13 01:24:01+00:00,81.0,5.49,82.0,7.3,12.41,47.59359,-54.27349
2023-09-13 01:34:01+00:00,78.0,4.74,77.0,6.58,12.41,47.59359,-54.27349
2023-09-13 01:44:01+00:00,68.0,7.0,65.0,7.79,12.41,47.59359,-54.27349
2023-09-13 01:54:01+00:00,73.0,6.21,69.0,7.69,12.41,47.59359,-54.27349
2023-09-13 02:04:01+00:00,72.0,6.42,76.0,7.55,12.41,47.59359,-54.27349
2023-09-13 02:14:00+00:00,72.0,6.3,73.0,7.69,12.41,47.59359,-54.27349
2023-09-13 02:24:00+00:00,68.0,6.32,65.0,7.5,12.41,47.59359,-54.27349
2023-09-13 02:34:00+00:00,74.0,6.15,70.0,7.97,12.41,47.59359,-54.27349
2023-09-13 02:44:00+00:00,71.0,6.54,69.0,8.04,12.41,47.59359,-54.27349
2023-09-13 02:54:00+00:00,71.0,6.51,67.0,7.79,12.41,47.59359,-54.27349
2023-09-13 03:04:00+00:00,69.0,5.94,75.0,7.86,12.41,47.59359,-54.27349
2023-09-13 03:14:00+00:00,73.0,5.64,69.0,7.67,12.41,47.59359,-54.27349
2023-09-13 03:24:00+00:00,75.0,5.19,64.0,7.64,12.41,47.59359,-54.27349
2023-09-13 03:34:00+00:00,68.0,6.64,64.0,7.62,12.41,47.59359,-54.27349
2023-09-13 03:44:00+00:00,73.0,5.74,70.0,7.08,12.41,47.59359,-54.27349
2023-09-13 03:54:00+00:00,69.0,6.14,69.0,7.69,12.41,47.59359,-54.27349
2023-09-13 04:04:00+00:00,73.0,5.02,73.0,6.59,12.41,47.59359,-54.27349
2023-09-13 04:14:00+00:00,75.0,5.38,69.0,6.8,12.33,47.59359,-54.27349
2023-09-13 04:24:00+00:00,72.0,5.6,65.0,7.35,12.33,47.59359,-54.27349
2023-09-13 04:34:00+00:00,69.0,5.99,69.0,6.94,12.33,47.59359,-54.27349
2023-09-13 04:44:00+00:00,71.0,4.08,83.0,5.35,12.33,47.59359,-54.27349
2023-09-13 04:54:00+00:00,75.0,4.72,72.0,5.93,12.33,47.59359,-54.27349
2023-09-13 05:04:00+00:00,70.0,4.78,61.0,5.87,12.33,47.59359,-54.27349
2023-09-13 05:14:00+00:00,72.0,5.02,64.0,6.96,12.33,47.59359,-54.27349
2023-09-13 05:24:00+00:00,74.0,4.42,61.0,6.02,12.33,47.59359,-54.27349
2023-09-13 05:34:00+00:00,71.0,4.92,68.0,6.25,12.33,47.59359,-54.27349
2023-09-13 05:44:00+00:00,67.0,6.4,65.0,7.26,12.33,47.59359,-54.27349
2023-09-13 05:54:00+00:00,70.0,5.54,69.0,6.67,12.33,47.59359,-54.27349
2023-09-13 06:04:00+00:00,74.0,5.13,68.0,6.1,12.33,47.59359,-54.27349
2023-09-13 06:14:00+00:00,68.0,5.96,66.0,7.23,12.33,47.59359,-54.27349
2023-09-13 06:24:00+00:00,72.0,4.98,66.0,5.9,12.33,47.59359,-54.27349
2023-09-13 06:34:00+00:00,69.0,4.42,74.0,5.31,12.33,47.59359,-54.27349
2023-09-13 06:44:00+00:00,69.0,5.09,63.0,6.67,12.33,47.59359,-54.27349
2023-09-13 06:54:00+00:00,68.0,4.8,66.0,5.62,12.33,47.59359,-54.27349
2023-09-13 07:04:00+00:00,68.0,5.27,71.0,7.29,12.33,47.59359,-54.27349
2023-09-13 07:14:00+00:00,63.0,4.62,71.0,5.68,12.33,47.59359,-54.27349
2023-09-13 07:24:00+00:00,63.0,4.34,70.0,4.85,12.33,47.59359,-54.27349
2023-09-13 07:34:00+00:00,71.0,5.47,79.0,9.04,12.33,47.59359,-54.27349
2023-09-13 07:44:00+00:00,65.0,4.32,71.0,6.19,12.33,47.59359,-54.27349
2023-09-13 07:54:00+00:00,67.0,4.53,78.0,7.77,12.33,47.59359,-54.27349
2023-09-13 08:04:00+00:00,73.0,4.08,80.0,8.91,12.33,47.59359,-54.27349
2023-09-13 08:14:00+00:00,61.0,2.37,74.0,7.51,12.33,47.59359,-54.27349
2023-09-13 08:24:00+00:00,58.0,1.44,65.0,4.52,12.33,47.59359,-54.27349
2023-09-13 08:34:00+00:00,71.0,4.33,68.0,4.93,12.33,47.59359,-54.27349
2023-09-13 08:44:00+00:00,70.0,4.37,71.0,4.74,12.33,47.59359,-54.27349
2023-09-13 08:54:00+00:00,76.0,3.22,62.0,4.13,12.33,47.59359,-54.27349
2023-09-13 09:04:00+00:00,74.0,2.73,66.0,4.22,12.33,47.59359,-54.27349
2023-09-13 09:14:00+00:00,78.0,2.74,80.0,3.87,12.25,47.59359,-54.27349
2023-09-13 09:24:00+00:00,68.0,4.9,69.0,5.99,12.25,47.59359,-54.27349
2023-09-13 09:34:00+00:00,72.0,4.66,71.0,5.54,12.25,47.59359,-54.27349
2023-09-13 09:44:00+00:00,75.0,3.56,80.0,4.41,12.25,47.59359,-54.27349
2023-09-13 09:54:00+00:00,71.0,4.16,75.0,4.79,12.25,47.59359,-54.27349
2023-09-13 10:04:00+00:00,71.0,4.46,71.0,5.54,12.25,47.59359,-54.27349
2023-09-13 10:14:00+00:00,82.0,3.32,72.0,4.37,12.25,47.59359,-54.27349
2023-09-13 10:24:00+00:00,75.0,2.61,74.0,3.73,12.25,47.59359,-54.27349
2023-09-13 10:34:00+00:00,86.0,3.45,81.0,4.45,12.25,47.59359,-54.27349
2023-09-13 10:44:00+00:00,75.0,3.15,68.0,4.54,12.25,47.59359,-54.27349
2023-09-13 10:54:00+00:00,71.0,3.55,66.0,5.45,12.25,47.59359,-54.27349
2023-09-13 11:04:00+00:00,73.0,2.33,65.0,3.4,12.25,47.59359,-54.27349
2023-09-13 11:14:00+00:00,68.0,4.14,75.0,5.08,12.73,47.59359,-54.27349
2023-09-13 11:24:00+00:00,90.0,2.97,94.0,4.15,12.73,47.59359,-54.27349
2023-09-13 11:34:00+00:00,76.0,2.84,69.0,4.39,12.73,47.59359,-54.27349
2023-09-13 11:44:00+00:00,73.0,3.26,59.0,4.74,12.73,47.59359,-54.27349
2023-09-13 11:54:00+00:00,70.0,2.84,67.0,4.0,12.73,47.59359,-54.27349
2023-09-13 12:04:00+00:00,71.0,3.28,77.0,4.53,12.73,47.59359,-54.27349
2023-09-13 12:14:00+00:00,72.0,3.96,79.0,4.93,13.05,47.59359,-54.27349
2023-09-13 12:24:00+00:00,60.0,4.35,61.0,5.0,13.05,47.59359,-54.27349
2023-09-13 12:34:00+00:00,55.0,4.81,54.0,5.27,13.05,47.59359,-54.27349
2023-09-13 12:44:00+00:00,55.0,4.19,57.0,4.81,13.05,47.59359,-54.27349
2023-09-13 12:54:00+00:00,62.0,4.01,61.0,4.74,13.05,47.59359,-54.27349
2023-09-13 13:04:00+00:00,66.0,4.4,72.0,4.91,13.05,47.59359,-54.27349
2023-09-13 13:14:01+00:00,54.0,4.17,48.0,4.88,13.37,47.59359,-54.27349
2023-09-13 13:24:01+00:00,56.0,4.2,60.0,4.67,13.37,47.59359,-54.27349
2023-09-13 13:34:01+00:00,65.0,4.64,72.0,5.49,13.37,47.59359,-54.27349
2023-09-13 13:44:01+00:00,59.0,3.84,55.0,4.34,13.37,47.59359,-54.27349
2023-09-13 13:54:01+00:00,63.0,3.73,62.0,4.37,13.37,47.59359,-54.27349
2023-09-13 14:04:01+00:00,50.0,4.63,49.0,5.05,13.37,47.59359,-54.27349
2023-09-13 14:14:00+00:00,56.0,4.58,58.0,5.06,13.6,47.59359,-54.27349
2023-09-13 14:24:00+00:00,56.0,5.11,57.0,5.7,13.6,47.59359,-54.27349
2023-09-13 14:34:00+00:00,54.0,5.12,49.0,5.49,13.6,47.59359,-54.27349
2023-09-13 14:44:00+00:00,58.0,5.11,57.0,5.65,13.6,47.59359,-54.27349
2023-09-13 14:54:00+00:00,53.0,4.76,49.0,5.91,13.6,47.59359,-54.27349
2023-09-13 15:04:00+00:00,57.0,4.68,60.0,5.14,13.6,47.59359,-54.27349
2023-09-13 15:14:00+00:00,46.0,4.55,47.0,5.49,13.68,47.59359,-54.27349
2023-09-13 15:24:00+00:00,69.0,3.94,62.0,4.37,13.68,47.59359,-54.27349
2023-09-13 15:34:00+00:00,52.0,3.95,54.0,4.42,13.68,47.59359,-54.27349
2023-09-13 15:44:00+00:00,62.0,4.12,63.0,4.58,13.68,47.59359,-54.27349
2023-09-13 15:54:00+00:00,61.0,3.69,59.0,4.26,13.68,47.59359,-54.27349
2023-09-13 16:04:00+00:00,51.0,4.79,52.0,5.5,13.68,47.59359,-54.27349
2023-09-13 16:14:00+00:00,52.0,4.37,54.0,5.05,13.76,47.59359,-54.27349
2023-09-13 16:24:00+00:00,64.0,3.66,66.0,4.39,13.76,47.59359,-54.27349
2023-09-13 16:34:00+00:00,58.0,3.96,60.0,4.49,13.76,47.59359,-54.27349
2023-09-13 16:44:00+00:00,51.0,3.61,53.0,4.03,13.76,47.59359,-54.27349
2023-09-13 16:54:00+00:00,48.0,3.69,52.0,4.37,13.76,47.59359,-54.27349
2023-09-13 17:04:00+00:00,46.0,4.11,49.0,4.85,13.76,47.59359,-54.27349
2023-09-13 17:14:00+00:00,48.0,3.55,42.0,4.17,13.68,47.59359,-54.27349
2023-09-13 17:24:00+00:00,54.0,3.52,52.0,4.05,13.68,47.59359,-54.27349
2023-09-13 17:34:00+00:00,54.0,3.41,54.0,3.92,13.68,47.59359,-54.27349
2023-09-13 17:44:00+00:00,55.0,3.11,49.0,3.51,13.68,47.59359,-54.27349
2023-09-13 17:54:00+00:00,71.0,2.11,65.0,3.11,13.68,47.59359,-54.27349
2023-09-13 18:04:00+00:00,59.0,2.37,49.0,2.83,13.68,47.59359,-54.27349
2023-09-13 18:14:00+00:00,78.0,2.07,60.0,2.82,13.76,47.59359,-54.27349
2023-09-13 18:24:00+00:00,64.0,2.97,64.0,3.58,13.76,47.59359,-54.27349
2023-09-13 18:34:00+00:00,57.0,3.28,60.0,3.61,13.76,47.59359,-54.27349
2023-09-13 18:44:00+00:00,62.0,3.23,70.0,3.92,13.76,47.59359,-54.27349
2023-09-13 18:54:00+00:00,67.0,3.4,70.0,4.11,13.76,47.59359,-54.27349
2023-09-13 19:04:00+00:00,70.0,3.73,68.0,4.8,13.76,47.59359,-54.27349
2023-09-13 19:14:00+00:00,70.0,4.44,73.0,5.03,13.6,47.59359,-54.27349
2023-09-13 19:24:00+00:00,76.0,2.46,79.0,3.62,13.6,47.59359,-54.27349
2023-09-13 19:34:00+00:00,80.0,2.9,86.0,4.15,13.6,47.59359,-54.27349
2023-09-13 19:44:00+00:00,69.0,3.08,63.0,4.34,13.6,47.59359,-54.27349
2023-09-13 19:54:00+00:00,70.0,2.62,74.0,2.91,13.6,47.59359,-54.27349
2023-09-13 20:04:00+00:00,66.0,3.88,62.0,4.82,13.6,47.59359,-54.27349
2023-09-13 20:14:00+00:00,71.0,3.08,72.0,4.0,13.44,47.59359,-54.27349
2023-09-13 20:24:00+00:00,59.0,3.55,60.0,4.27,13.44,47.59359,-54.27349
2023-09-13 20:34:00+00:00,74.0,3.04,68.0,3.53,13.44,47.59359,-54.27349
2023-09-13 20:44:00+00:00,69.0,3.56,65.0,4.07,13.44,47.59359,-54.27349
2023-09-13 20:54:00+00:00,66.0,3.18,67.0,4.15,13.44,47.59359,-54.27349
2023-09-13 21:04:00+00:00,69.0,2.78,68.0,3.73,13.44,47.59359,-54.27349
2023-09-13 21:14:00+00:00,74.0,2.19,67.0,2.9,13.05,47.59359,-54.27349
2023-09-13 21:24:00+00:00,73.0,3.62,71.0,4.24,13.05,47.59359,-54.27349
2023-09-13 21:34:00+00:00,64.0,3.19,62.0,4.15,13.05,47.59359,-54.27349
2023-09-13 21:44:00+00:00,64.0,2.86,61.0,3.82,13.05,47.59359,-54.27349
2023-09-13 21:54:00+00:00,70.0,1.99,57.0,2.77,13.05,47.59359,-54.27349
2023-09-13 22:04:00+00:00,76.0,1.41,68.0,2.02,13.05,47.59359,-54.27349
2023-09-13 22:14:01+00:00,73.0,2.1,63.0,2.97,12.57,47.59359,-54.27349
2023-09-13 22:24:01+00:00,77.0,2.22,63.0,3.23,12.57,47.59359,-54.27349
2023-09-13 22:34:01+00:00,99.0,2.57,83.0,4.04,12.57,47.59359,-54.27349
2023-09-13 22:44:01+00:00,86.0,2.08,59.0,2.65,12.57,47.59359,-54.27349
2023-09-13 22:54:01+00:00,88.0,1.95,117.0,3.14,12.57,47.59359,-54.27349
2023-09-13 23:04:01+00:00,99.0,1.85,115.0,3.21,12.57,47.59359,-54.27349
2023-09-13 23:14:01+00:00,109.0,2.26,91.0,4.2,12.49,47.59359,-54.27349
2023-09-13 23:24:01+00:00,100.0,3.35,96.0,4.69,12.49,47.59359,-54.27349
2023-09-13 23:34:01+00:00,86.0,2.01,96.0,3.23,12.49,47.59359,-54.27349
2023-09-13 23:44:01+00:00,97.0,1.97,134.0,3.48,12.49,47.59359,-54.27349
2023-09-13 23:54:01+00:00,102.0,2.24,113.0,3.44,12.49,47.59359,-54.27349
